GOES 14

Last updated on Wed Nov 05 2025 00:02:22 GMT+0000 (Coordinated Universal Time)

1 35491U 09033A 25308.58570723 -.00000054 00000+0 00000+0 0 9990 2 35491 1.0960 85.8341 0004191 134.4251 286.2415 1.00271461 4345
UTC large
Height (km)
Speed (km/s)
/
Latitude / Longitude
Inclination (degrees)
Orbital Period (minutes)
Azimuth
Elevation
Range (km)
Doppler Factor

Next 0 passes for location: London (51.5072 / 0.1276)

Sorry there are no passes over London.